Torna al catalogo

STARLINK-36113

AttivoComunicazioniVLEO
NORAD 66982·PAYLOAD·🇺🇸 United States

Lanciato Dec 8, 2025 da Cape Canaveral Space Force Station

Loading…

Prossimi Passaggi (prossime 24 ore)

TLE

AggiornatoSource: CelesTrak SupGP

Epoca: Sep 15, 2026, 03:32 UTC

1 66982C 25288Z   26258.14770833  .00001168  00000+0  42313-4 0  2582
2 66982  43.0010  33.1254 0001579 263.5459 208.9830 15.27579843    17

Traccia STARLINK-36113 in tempo reale con AllMySat

Download on the App Store